TimeCDT,TemperatureF,Dew PointF,Humidity,Sea Level PressureIn,VisibilityMPH,Wind Direction,Wind SpeedMPH,Gust SpeedMPH,PrecipitationIn,Events,Conditions,WindDirDegrees,DateUTC
12:15 AM,-9999,-9999,N/A,29.71,5.0,SSW,5.8,-,N/A,,Haze,210,2014-04-29 05:15:00
12:35 AM,-9999,-9999,N/A,29.71,5.0,SSW,4.6,-,N/A,,Haze,210,2014-04-29 05:35:00
12:55 AM,-9999,-9999,N/A,29.70,5.0,SW,3.5,-,N/A,,Haze,220,2014-04-29 05:55:00
1:15 AM,-9999,-9999,N/A,29.70,5.0,SW,3.5,-,N/A,,Haze,220,2014-04-29 06:15:00
1:35 AM,-9999,-9999,N/A,29.68,5.0,Calm,Calm,-,N/A,,Haze,0,2014-04-29 06:35:00
1:55 AM,-9999,-9999,N/A,29.68,4.0,Calm,Calm,-,N/A,,Haze,0,2014-04-29 06:55:00
2:15 AM,-9999,-9999,N/A,29.68,5.0,SSW,3.5,-,N/A,,Haze,200,2014-04-29 07:15:00
2:35 AM,-9999,-9999,N/A,29.67,5.0,South,3.5,-,N/A,,Haze,170,2014-04-29 07:35:00
2:55 AM,-9999,-9999,N/A,29.67,5.0,South,4.6,-,N/A,,Haze,190,2014-04-29 07:55:00
3:15 AM,-9999,-9999,N/A,29.66,4.0,SSW,4.6,-,N/A,,Haze,200,2014-04-29 08:15:00
3:35 AM,-9999,-9999,N/A,29.65,5.0,SSW,3.5,-,N/A,,Haze,200,2014-04-29 08:35:00
3:55 AM,-9999,-9999,N/A,29.65,5.0,Calm,Calm,-,N/A,,Haze,0,2014-04-29 08:55:00
4:15 AM,-9999,-9999,N/A,29.65,5.0,SSW,5.8,-,N/A,,Haze,200,2014-04-29 09:15:00
4:35 AM,-9999,-9999,N/A,29.65,7.0,South,4.6,-,N/A,,Overcast,190,2014-04-29 09:35:00
4:55 AM,-9999,-9999,N/A,29.65,7.0,SSE,4.6,-,N/A,,Overcast,160,2014-04-29 09:55:00
5:15 AM,-9999,-9999,N/A,29.65,7.0,Calm,Calm,-,N/A,,Overcast,0,2014-04-29 10:15:00
5:35 AM,-9999,-9999,N/A,29.65,5.0,SSE,3.5,-,N/A,,Haze,160,2014-04-29 10:35:00
5:55 AM,-9999,-9999,N/A,29.64,4.0,Calm,Calm,-,N/A,,Haze,0,2014-04-29 10:55:00
6:15 AM,-9999,-9999,N/A,29.64,3.0,Calm,Calm,-,N/A,,Overcast,0,2014-04-29 11:15:00
6:35 AM,-9999,-9999,N/A,29.66,3.0,Calm,Calm,-,N/A,,Overcast,0,2014-04-29 11:35:00
6:55 AM,-9999,-9999,N/A,29.67,3.0,Calm,Calm,-,N/A,,Overcast,0,2014-04-29 11:55:00
7:15 AM,-9999,-9999,N/A,29.68,3.0,Calm,Calm,-,N/A,,Overcast,0,2014-04-29 12:15:00
7:35 AM,-9999,-9999,N/A,29.68,4.0,Calm,Calm,-,N/A,,Haze,0,2014-04-29 12:35:00
7:55 AM,-9999,-9999,N/A,29.68,4.0,Calm,Calm,-,N/A,,Haze,0,2014-04-29 12:55:00
8:15 AM,-9999,-9999,N/A,29.69,5.0,SSW,3.5,-,N/A,,Haze,210,2014-04-29 13:15:00
8:35 AM,-9999,-9999,N/A,29.69,7.0,SW,3.5,-,N/A,,Overcast,220,2014-04-29 13:35:00
8:55 AM,82.6,82.6,100,29.69,7.0,WSW,3.5,-,N/A,,Overcast,240,2014-04-29 13:55:00
9:15 AM,84.0,81.5,92,29.70,7.0,SW,5.8,-,N/A,,Overcast,230,2014-04-29 14:15:00
9:35 AM,83.7,82.9,98,29.71,7.0,SW,6.9,-,N/A,,Overcast,230,2014-04-29 14:35:00
9:55 AM,84.6,82.2,93,29.70,7.0,SW,6.9,-,N/A,,Overcast,220,2014-04-29 14:55:00
10:15 AM,84.6,81.7,91,29.70,10.0,SSW,4.6,-,N/A,,Overcast,210,2014-04-29 15:15:00
10:35 AM,85.6,81.1,86,29.71,10.0,SW,4.6,-,N/A,,Overcast,230,2014-04-29 15:35:00
10:55 AM,85.6,80.4,84,29.71,10.0,South,5.8,-,N/A,,Overcast,190,2014-04-29 15:55:00
11:15 AM,85.6,80.4,84,29.71,10.0,South,11.5,-,N/A,,Overcast,190,2014-04-29 16:15:00
11:35 AM,87.1,81.3,83,29.72,10.0,SSE,8.1,-,N/A,,Overcast,150,2014-04-29 16:35:00
11:55 AM,86.0,84.9,97,29.72,10.0,South,6.9,-,N/A,,Overcast,170,2014-04-29 16:55:00
12:15 PM,87.4,82.4,85,29.71,10.0,SSE,9.2,-,N/A,,Mostly Cloudy,160,2014-04-29 17:15:00
12:35 PM,87.6,82.6,85,29.72,10.0,SSE,9.2,-,N/A,,Mostly Cloudy,150,2014-04-29 17:35:00
1:15 PM,88.5,80.2,76,29.70,10.0,South,11.5,-,N/A,,Scattered Clouds,170,2014-04-29 18:15:00
1:35 PM,89.2,79.0,72,29.70,10.0,South,11.5,18.4,N/A,,Scattered Clouds,180,2014-04-29 18:35:00
1:55 PM,88.7,78.8,72,29.69,10.0,South,8.1,-,N/A,,Mostly Cloudy,170,2014-04-29 18:55:00
2:15 PM,90.1,76.8,65,29.69,10.0,SSW,8.1,-,N/A,,Mostly Cloudy,200,2014-04-29 19:15:00
2:35 PM,90.0,76.3,64,29.69,10.0,SW,11.5,-,N/A,,Scattered Clouds,220,2014-04-29 19:35:00
2:55 PM,89.8,75.7,63,29.68,10.0,SW,8.1,-,N/A,,Mostly Cloudy,220,2014-04-29 19:55:00
3:15 PM,90.1,75.2,61,29.68,10.0,SW,5.8,-,N/A,,Overcast,220,2014-04-29 20:15:00
3:35 PM,90.3,75.2,61,29.67,10.0,SSW,9.2,-,N/A,,Overcast,200,2014-04-29 20:35:00
3:55 PM,90.7,75.2,60,29.67,10.0,SSW,6.9,-,N/A,,Mostly Cloudy,200,2014-04-29 20:55:00
4:15 PM,90.3,74.5,59,29.67,10.0,SW,10.4,-,N/A,,Mostly Cloudy,220,2014-04-29 21:15:00
4:35 PM,90.7,74.3,58,29.67,10.0,SW,5.8,-,N/A,,Scattered Clouds,230,2014-04-29 21:35:00
5:15 PM,90.9,73.9,57,29.67,10.0,SW,6.9,-,N/A,,Scattered Clouds,220,2014-04-29 22:15:00
5:35 PM,90.3,75.4,61,29.67,10.0,WSW,5.8,-,N/A,,Mostly Cloudy,240,2014-04-29 22:35:00
5:55 PM,89.8,75.6,63,29.67,10.0,SSW,9.2,-,N/A,,Scattered Clouds,200,2014-04-29 22:55:00
6:15 PM,88.7,75.7,65,29.67,10.0,SSW,8.1,-,N/A,,Clear,210,2014-04-29 23:15:00
6:35 PM,87.8,75.4,66,29.67,10.0,SSW,6.9,-,N/A,,Clear,200,2014-04-29 23:35:00
6:55 PM,86.2,78.1,77,29.68,10.0,South,8.1,-,N/A,,Scattered Clouds,180,2014-04-29 23:55:00
7:15 PM,84.2,80.2,88,29.69,10.0,South,8.1,-,N/A,,Scattered Clouds,180,2014-04-30 00:15:00
7:35 PM,83.5,80.1,89,29.70,10.0,SSW,10.4,-,N/A,,Scattered Clouds,210,2014-04-30 00:35:00
7:55 PM,83.3,79.2,87,29.72,10.0,SSW,9.2,-,N/A,,Mostly Cloudy,210,2014-04-30 00:55:00
8:15 PM,82.8,79.9,91,29.73,10.0,SSW,6.9,-,N/A,,Overcast,210,2014-04-30 01:15:00
8:35 PM,82.4,80.8,95,29.74,10.0,West,5.8,-,N/A,,Overcast,260,2014-04-30 01:35:00
8:55 PM,81.9,81.9,100,29.75,10.0,WNW,5.8,-,N/A,,Mostly Cloudy,300,2014-04-30 01:55:00
9:35 PM,81.0,66.7,62,29.78,10.0,NNW,9.2,-,N/A,,Clear,330,2014-04-30 02:35:00
9:55 PM,80.2,65.3,60,29.80,10.0,NNW,12.7,16.1,N/A,,Clear,340,2014-04-30 02:55:00
10:15 PM,79.9,62.6,55,29.81,10.0,NNW,9.2,-,N/A,,Scattered Clouds,340,2014-04-30 03:15:00
10:35 PM,79.7,57.4,46,29.82,10.0,NNW,15.0,24.2,N/A,,Mostly Cloudy,340,2014-04-30 03:35:00
10:55 PM,78.4,53.1,41,29.83,10.0,NNW,18.4,23.0,N/A,,Overcast,330,2014-04-30 03:55:00
11:15 PM,77.9,50.4,38,29.83,10.0,NNW,15.0,24.2,N/A,,Overcast,340,2014-04-30 04:15:00
11:35 PM,77.0,48.4,36,29.84,10.0,NNW,12.7,20.7,N/A,,Overcast,330,2014-04-30 04:35:00
11:55 PM,75.9,48.4,38,29.85,10.0,NNW,11.5,-,N/A,,Overcast,330,2014-04-30 04:55:00